EK2PL EDDN-EDDF

Flight info

Callsign EK2PL
Flight time 0h 42m
Altitude 24000
Route SUKAD1G SUKAD DCT PIWAW T159 SPESA SPESA4C
Aircraft B77L/H-SDE1E2E3FGHIJ2J3J4J5M1RWXY/LB1D1

Departure

Time 2026-04-14 14:41
Airport Nuremberg Airport (EDDN)

Arrival

Time 2026-04-14 15:23
Airport Frankfurt Main Airport (EDDF)
Time Latitude Longitude Altitude Speed Heading
2026-04-14 13:43 49.49564 11.07397 1005 ft 0 kts 188°
2026-04-14 14:16 49.49563 11.07396 1032 ft 1 kts 188°
2026-04-14 14:16 49.49578 11.07400 1030 ft 4 kts 182°
2026-04-14 14:17 49.49627 11.07357 1031 ft 0 kts 103°
2026-04-14 14:21 49.49625 11.07372 1029 ft 4 kts 99°
2026-04-14 14:22 49.49619 11.07437 1031 ft 8 kts 98°
2026-04-14 14:22 49.49607 11.07549 1032 ft 13 kts 99°
2026-04-14 14:22 49.49593 11.07701 1033 ft 15 kts 98°
2026-04-14 14:22 49.49579 11.07841 1035 ft 12 kts 98°
2026-04-14 14:23 49.49566 11.07973 1035 ft 13 kts 98°
2026-04-14 14:23 49.49552 11.08110 1033 ft 12 kts 98°
2026-04-14 14:23 49.49540 11.08235 1034 ft 12 kts 98°
2026-04-14 14:23 49.49559 11.08349 1036 ft 12 kts 28°
2026-04-14 14:24 49.49611 11.08441 1033 ft 13 kts 89°
2026-04-14 14:24 49.49602 11.08577 1038 ft 13 kts 98°
2026-04-14 14:24 49.49589 11.08712 1039 ft 13 kts 98°
2026-04-14 14:24 49.49575 11.08848 1041 ft 13 kts 99°
2026-04-14 14:25 49.49562 11.08984 1042 ft 13 kts 98°
2026-04-14 14:25 49.49548 11.09121 1042 ft 13 kts 98°
2026-04-14 14:25 49.49537 11.09246 1044 ft 8 kts 98°
2026-04-14 14:25 49.49535 11.09265 1045 ft 1 kts 98°
2026-04-14 14:26 49.49534 11.09277 1045 ft 1 kts 98°
2026-04-14 14:26 49.49533 11.09282 1045 ft 0 kts 98°
2026-04-14 14:28 49.49533 11.09286 1045 ft 2 kts 98°
2026-04-14 14:28 49.49536 11.09348 1046 ft 10 kts 75°
2026-04-14 14:28 49.49574 11.09445 1046 ft 5 kts 54°
2026-04-14 14:28 49.49584 11.09468 1047 ft 0 kts 54°
2026-04-14 14:38 49.49588 11.09476 1047 ft 2 kts 54°
2026-04-14 14:39 49.49615 11.09531 1048 ft 12 kts 48°
2026-04-14 14:39 49.49687 11.09554 1049 ft 12 kts 326°
2026-04-14 14:39 49.49702 11.09500 1048 ft 0 kts 280°
2026-04-14 14:40 49.49703 11.09497 1048 ft 2 kts 280°
2026-04-14 14:40 49.49742 11.09109 1044 ft 79 kts 279°
2026-04-14 14:40 49.49865 11.07885 1039 ft 149 kts 279°
2026-04-14 14:40 49.50017 11.06160 1471 ft 164 kts 281°
2026-04-14 14:41 49.50203 11.04394 2918 ft 175 kts 282°
2026-04-14 14:41 49.50419 11.02331 3844 ft 213 kts 282°
2026-04-14 14:41 49.50665 10.99875 4361 ft 248 kts 280°
2026-04-14 14:41 49.50923 10.97208 5498 ft 254 kts 279°
2026-04-14 14:42 49.51182 10.94478 6476 ft 266 kts 279°
2026-04-14 14:42 49.51360 10.92590 6909 ft 270 kts 278°
2026-04-14 14:42 49.51636 10.89703 7504 ft 272 kts 278°
2026-04-14 14:42 49.51917 10.86782 8885 ft 273 kts 278°
2026-04-14 14:43 49.52201 10.83841 10176 ft 278 kts 277°
2026-04-14 14:43 49.52483 10.80895 11173 ft 292 kts 278°
2026-04-14 14:43 49.52794 10.77630 11595 ft 326 kts 278°
2026-04-14 14:43 49.53140 10.73994 12055 ft 355 kts 278°
2026-04-14 14:44 49.53504 10.70173 13116 ft 365 kts 278°
2026-04-14 14:44 49.53874 10.66286 14329 ft 370 kts 278°
2026-04-14 14:44 49.54249 10.62311 15363 ft 378 kts 278°
2026-04-14 14:44 49.54627 10.58288 16539 ft 381 kts 278°
2026-04-14 14:45 49.55067 10.54250 17504 ft 386 kts 284°
2026-04-14 14:45 49.56204 10.50487 18472 ft 393 kts 303°
2026-04-14 14:45 49.57851 10.47076 19176 ft 402 kts 306°
2026-04-14 14:45 49.59531 10.43572 20028 ft 409 kts 305°
2026-04-14 14:46 49.61214 10.40008 20998 ft 412 kts 304°
2026-04-14 14:46 49.62899 10.36408 21948 ft 416 kts 304°
2026-04-14 14:46 49.64589 10.32773 23074 ft 416 kts 304°
2026-04-14 14:46 49.66276 10.29133 23961 ft 418 kts 303°
2026-04-14 14:47 49.67968 10.25471 24208 ft 418 kts 303°
2026-04-14 14:47 49.69654 10.21818 24192 ft 415 kts 303°
2026-04-14 14:47 49.71329 10.18180 24174 ft 411 kts 303°
2026-04-14 14:47 49.72953 10.14651 24188 ft 411 kts 303°
2026-04-14 14:48 49.74612 10.11038 24186 ft 413 kts 303°
2026-04-14 14:48 49.76278 10.07403 24189 ft 413 kts 303°
2026-04-14 14:48 49.77943 10.03768 24186 ft 414 kts 303°
2026-04-14 14:48 49.79605 10.00134 24188 ft 414 kts 303°
2026-04-14 14:49 49.81266 9.96499 24173 ft 414 kts 303°
2026-04-14 14:49 49.82928 9.92855 24162 ft 413 kts 303°
2026-04-14 14:49 49.84586 9.89220 24180 ft 413 kts 303°
2026-04-14 14:49 49.86238 9.85587 24183 ft 412 kts 303°
2026-04-14 14:50 49.87879 9.81947 24156 ft 411 kts 301°
2026-04-14 14:50 49.89333 9.78142 24175 ft 409 kts 295°
2026-04-14 14:50 49.90485 9.74138 24092 ft 403 kts 289°
2026-04-14 14:50 49.91511 9.70100 23840 ft 400 kts 289°
2026-04-14 14:51 49.92448 9.66076 23398 ft 395 kts 282°
2026-04-14 14:51 49.92715 9.61896 22870 ft 394 kts 266°
2026-04-14 14:51 49.92297 9.57693 22778 ft 385 kts 253°
2026-04-14 14:51 49.91370 9.53903 22721 ft 376 kts 246°
2026-04-14 14:52 49.90336 9.50215 22670 ft 369 kts 246°
2026-04-14 14:52 49.89338 9.46587 22624 ft 362 kts 247°
2026-04-14 14:52 49.88387 9.43042 22535 ft 346 kts 247°
2026-04-14 14:52 49.87492 9.39672 22409 ft 330 kts 247°
2026-04-14 14:53 49.86712 9.36418 22293 ft 316 kts 257°
2026-04-14 14:53 49.86586 9.33084 22160 ft 307 kts 276°
2026-04-14 14:53 49.87059 9.29906 22008 ft 298 kts 284°
2026-04-14 14:53 49.87662 9.26845 21822 ft 298 kts 285°
2026-04-14 14:54 49.88276 9.23790 21771 ft 296 kts 285°
2026-04-14 14:54 49.88882 9.20745 21737 ft 294 kts 285°
2026-04-14 14:54 49.89467 9.17763 21657 ft 293 kts 285°
2026-04-14 14:54 49.90055 9.14736 21572 ft 293 kts 285°
2026-04-14 14:55 49.90640 9.11698 21472 ft 293 kts 284°
2026-04-14 14:55 49.91217 9.08669 21369 ft 294 kts 287°
2026-04-14 14:55 49.91799 9.05624 21266 ft 294 kts 288°
2026-04-14 14:55 49.92668 9.02805 21126 ft 291 kts 306°
2026-04-14 14:56 49.95350 8.98084 20908 ft 293 kts 313°
2026-04-14 14:56 49.96755 8.95787 20811 ft 293 kts 313°
2026-04-14 14:56 49.98156 8.93505 20774 ft 291 kts 313°
2026-04-14 14:57 49.99557 8.91229 20692 ft 291 kts 313°
2026-04-14 14:57 50.00955 8.88961 20642 ft 291 kts 314°
2026-04-14 14:57 50.02358 8.86682 20516 ft 292 kts 314°
2026-04-14 14:57 50.03764 8.84396 20440 ft 292 kts 314°
2026-04-14 14:58 50.05166 8.82115 20412 ft 290 kts 314°
2026-04-14 14:58 50.06555 8.79852 20366 ft 290 kts 314°
2026-04-14 14:58 50.07948 8.77580 20322 ft 288 kts 313°
2026-04-14 14:58 50.09353 8.75288 19887 ft 302 kts 314°
2026-04-14 14:59 50.10886 8.72774 19078 ft 344 kts 314°
2026-04-14 14:59 50.12590 8.69965 18607 ft 362 kts 314°
2026-04-14 14:59 50.14327 8.67088 17806 ft 365 kts 313°
2026-04-14 14:59 50.16057 8.64224 16986 ft 360 kts 313°
2026-04-14 15:00 50.17738 8.61459 16498 ft 341 kts 313°
2026-04-14 15:00 50.19344 8.58837 15972 ft 331 kts 313°
2026-04-14 15:00 50.20886 8.56355 15694 ft 311 kts 315°
2026-04-14 15:00 50.22558 8.54446 15484 ft 288 kts 326°
2026-04-14 15:01 50.24021 8.52480 15331 ft 269 kts 315°
2026-04-14 15:01 50.25556 8.50847 15174 ft 270 kts 340°
2026-04-14 15:01 50.27418 8.50519 15050 ft 273 kts
2026-04-14 15:01 50.29186 8.51593 14941 ft 278 kts 34°
2026-04-14 15:02 50.30470 8.53849 14832 ft 285 kts 62°
2026-04-14 15:02 50.31208 8.56731 14750 ft 288 kts 71°
2026-04-14 15:02 50.31796 8.59738 14619 ft 287 kts 73°
2026-04-14 15:02 50.32348 8.62725 14497 ft 284 kts 73°
2026-04-14 15:03 50.32888 8.65675 14373 ft 280 kts 73°
2026-04-14 15:03 50.33406 8.68601 14207 ft 278 kts 73°
2026-04-14 15:03 50.33916 8.71513 13965 ft 278 kts 73°
2026-04-14 15:03 50.34429 8.74435 13708 ft 278 kts 73°
2026-04-14 15:04 50.34945 8.77355 13438 ft 278 kts 73°
2026-04-14 15:04 50.35459 8.80280 13182 ft 278 kts 73°
2026-04-14 15:04 50.35974 8.83194 12906 ft 276 kts 73°
2026-04-14 15:04 50.36479 8.86069 12622 ft 269 kts 77°
2026-04-14 15:05 50.36500 8.88963 12328 ft 267 kts 105°
2026-04-14 15:05 50.35646 8.91494 12088 ft 265 kts 135°
2026-04-14 15:05 50.34143 8.93110 11829 ft 261 kts 158°
2026-04-14 15:05 50.32439 8.94112 11620 ft 263 kts 162°
2026-04-14 15:06 50.30694 8.95018 11382 ft 265 kts 163°
2026-04-14 15:06 50.28962 8.95872 11124 ft 260 kts 170°
2026-04-14 15:06 50.27207 8.95851 10842 ft 250 kts 199°
2026-04-14 15:06 50.25749 8.94489 10594 ft 244 kts 229°
2026-04-14 15:07 50.24913 8.92224 10370 ft 241 kts 249°
2026-04-14 15:07 50.24391 8.89726 10133 ft 242 kts 252°
2026-04-14 15:07 50.23920 8.87204 9883 ft 243 kts 253°
2026-04-14 15:07 50.23445 8.84651 9636 ft 244 kts 253°
2026-04-14 15:08 50.22967 8.82097 9356 ft 246 kts 253°
2026-04-14 15:08 50.22480 8.79523 9089 ft 247 kts 253°
2026-04-14 15:08 50.21986 8.76956 8841 ft 247 kts 254°
2026-04-14 15:08 50.21482 8.74385 8578 ft 248 kts 254°
2026-04-14 15:09 50.20966 8.71816 8323 ft 247 kts 254°
2026-04-14 15:09 50.20442 8.69295 8244 ft 241 kts 253°
2026-04-14 15:09 50.19928 8.66819 8194 ft 242 kts 253°
2026-04-14 15:09 50.19404 8.64294 8196 ft 246 kts 254°
2026-04-14 15:10 50.18877 8.61744 8192 ft 248 kts 253°
2026-04-14 15:10 50.18353 8.59186 8181 ft 247 kts 253°
2026-04-14 15:10 50.17825 8.56642 8177 ft 246 kts 254°
2026-04-14 15:10 50.17292 8.54076 8003 ft 250 kts 254°
2026-04-14 15:11 50.16743 8.51482 7759 ft 252 kts 254°
2026-04-14 15:11 50.16189 8.48912 7492 ft 249 kts 253°
2026-04-14 15:11 50.15646 8.46375 7238 ft 245 kts 253°
2026-04-14 15:11 50.15101 8.43861 6987 ft 245 kts 253°
2026-04-14 15:12 50.14553 8.41328 6754 ft 247 kts 253°
2026-04-14 15:12 50.14000 8.38780 6504 ft 249 kts 253°
2026-04-14 15:12 50.13444 8.36221 6239 ft 249 kts 253°
2026-04-14 15:12 50.12888 8.33670 5978 ft 247 kts 253°
2026-04-14 15:13 50.12335 8.31152 5714 ft 244 kts 253°
2026-04-14 15:13 50.11788 8.28668 5437 ft 242 kts 253°
2026-04-14 15:13 50.11257 8.26240 5268 ft 237 kts 253°
2026-04-14 15:13 50.10733 8.23830 5216 ft 234 kts 253°
2026-04-14 15:14 50.10212 8.21412 5196 ft 237 kts 253°
2026-04-14 15:14 50.09687 8.18956 5198 ft 240 kts 253°
2026-04-14 15:14 50.09154 8.16475 5186 ft 241 kts 253°
2026-04-14 15:14 50.08624 8.14016 5167 ft 239 kts 253°
2026-04-14 15:15 50.08092 8.11577 5169 ft 237 kts 253°
2026-04-14 15:15 50.07559 8.09148 5188 ft 237 kts 253°
2026-04-14 15:15 50.07032 8.06726 5169 ft 236 kts 253°
2026-04-14 15:15 50.06490 8.04318 5161 ft 234 kts 247°
2026-04-14 15:16 50.05495 8.02317 5201 ft 241 kts 216°
2026-04-14 15:16 50.03921 8.01364 5176 ft 247 kts 184°
2026-04-14 15:16 50.02246 8.01680 5198 ft 242 kts 164°
2026-04-14 15:16 50.00608 8.02379 5196 ft 246 kts 163°
2026-04-14 15:17 49.98922 8.03091 5188 ft 248 kts 163°
2026-04-14 15:17 49.97281 8.03804 5169 ft 241 kts 160°
2026-04-14 15:17 49.95899 8.05096 5193 ft 236 kts 129°
2026-04-14 15:17 49.95122 8.07316 5197 ft 234 kts 105°
2026-04-14 15:18 49.94684 8.09771 5186 ft 235 kts 98°
2026-04-14 15:18 49.94757 8.12246 5199 ft 231 kts 71°
2026-04-14 15:18 49.95299 8.14612 5197 ft 234 kts 68°
2026-04-14 15:18 49.95864 8.17006 5035 ft 240 kts 68°
2026-04-14 15:19 49.96446 8.19435 4686 ft 239 kts 67°
2026-04-14 15:19 49.97018 8.21823 4398 ft 233 kts 67°
2026-04-14 15:19 49.97584 8.24170 4023 ft 231 kts 67°
2026-04-14 15:19 49.98140 8.26479 3689 ft 227 kts 67°
2026-04-14 15:20 49.98688 8.28764 3354 ft 223 kts 67°
2026-04-14 15:20 49.99224 8.31004 3040 ft 219 kts 68°
2026-04-14 15:20 49.99742 8.33162 2724 ft 210 kts 68°
2026-04-14 15:20 50.00235 8.35222 2412 ft 193 kts 67°
2026-04-14 15:21 50.00684 8.37100 2164 ft 177 kts 67°
2026-04-14 15:21 50.00963 8.38264 1999 ft 170 kts 67°
2026-04-14 15:21 50.01479 8.40406 1713 ft 156 kts 67°
2026-04-14 15:21 50.01873 8.42002 1458 ft 159 kts 68°
2026-04-14 15:22 50.02233 8.43593 1120 ft 155 kts 70°
2026-04-14 15:22 50.02456 8.44623 988 ft 151 kts 66°
2026-04-14 15:22 50.02848 8.46163 812 ft 153 kts 68°
2026-04-14 15:22 50.03227 8.47724 642 ft 153 kts 68°
2026-04-14 15:23 50.03600 8.49284 408 ft 153 kts 69°
2026-04-14 15:23 50.03962 8.50784 326 ft 133 kts 70°
2026-04-14 15:23 50.04192 8.51739 352 ft 59 kts 69°
2026-04-14 15:23 50.04321 8.52278 354 ft 44 kts 70°
2026-04-14 15:24 50.04387 8.52606 356 ft 30 kts 81°
2026-04-14 15:24 50.04384 8.52891 366 ft 11 kts 99°
2026-04-14 15:24 50.04372 8.53014 366 ft 11 kts 98°
2026-04-14 15:24 50.04360 8.53133 364 ft 11 kts 98°
2026-04-14 15:25 50.04351 8.53256 364 ft 11 kts 89°
2026-04-14 15:25 50.04369 8.53375 369 ft 11 kts 70°
2026-04-14 15:25 50.04395 8.53492 373 ft 12 kts 70°
2026-04-14 15:25 50.04403 8.53623 370 ft 13 kts 85°
2026-04-14 15:26 50.04412 8.53762 372 ft 13 kts 84°
2026-04-14 15:26 50.04422 8.53901 366 ft 13 kts 83°
2026-04-14 15:26 50.04432 8.54047 371 ft 14 kts 85°
2026-04-14 15:26 50.04440 8.54197 369 ft 14 kts 84°
2026-04-14 15:27 50.04451 8.54358 370 ft 18 kts 84°
2026-04-14 15:27 50.04430 8.54577 372 ft 24 kts 110°
2026-04-14 15:27 50.04335 8.54749 373 ft 18 kts 147°
2026-04-14 15:27 50.04260 8.54802 371 ft 9 kts 159°
2026-04-14 15:28 50.04195 8.54838 370 ft 11 kts 160°
2026-04-14 15:28 50.04120 8.54880 370 ft 12 kts 160°
2026-04-14 15:28 50.04097 8.54893 368 ft 1 kts 159°
2026-04-14 15:28 50.04091 8.54897 369 ft 1 kts 159°
2026-04-14 15:29 50.04076 8.54906 369 ft 4 kts 159°
2026-04-14 15:29 50.04041 8.54932 371 ft 8 kts 144°
2026-04-14 15:29 50.04022 8.55018 373 ft 9 kts 83°
2026-04-14 15:29 50.04043 8.55120 368 ft 11 kts 70°
2026-04-14 15:30 50.04075 8.55254 369 ft 16 kts 69°
2026-04-14 15:30 50.04116 8.55422 371 ft 17 kts 70°
2026-04-14 15:30 50.04156 8.55592 370 ft 17 kts 70°
2026-04-14 15:30 50.04196 8.55761 368 ft 17 kts 70°
2026-04-14 15:31 50.04234 8.55918 366 ft 14 kts 69°
2026-04-14 15:31 50.04269 8.56063 368 ft 15 kts 69°
2026-04-14 15:31 50.04306 8.56220 369 ft 16 kts 70°
2026-04-14 15:31 50.04345 8.56382 370 ft 16 kts 69°
2026-04-14 15:32 50.04385 8.56550 372 ft 17 kts 69°
2026-04-14 15:32 50.04420 8.56693 368 ft 13 kts 70°
2026-04-14 15:32 50.04452 8.56831 368 ft 14 kts 70°
2026-04-14 15:32 50.04488 8.56983 368 ft 15 kts 70°
2026-04-14 15:33 50.04526 8.57143 367 ft 16 kts 69°
2026-04-14 15:33 50.04564 8.57303 369 ft 16 kts 69°
2026-04-14 15:33 50.04603 8.57464 372 ft 16 kts 69°
2026-04-14 15:33 50.04642 8.57624 366 ft 16 kts 69°
2026-04-14 15:34 50.04680 8.57785 373 ft 16 kts 70°
2026-04-14 15:34 50.04737 8.57929 370 ft 16 kts 43°
2026-04-14 15:34 50.04798 8.58040 372 ft 11 kts 65°
2026-04-14 15:34 50.04828 8.58153 369 ft 12 kts 69°
2026-04-14 15:35 50.04858 8.58276 369 ft 13 kts 69°
2026-04-14 15:35 50.04878 8.58370 368 ft 7 kts 81°
2026-04-14 15:35 50.04860 8.58433 372 ft 7 kts 149°
2026-04-14 15:35 50.04818 8.58457 369 ft 4 kts 159°
2026-04-14 15:36 50.04814 8.58459 369 ft 0 kts 159°